Delta Virtual Airport Information Service

Nassau Lynden Pindling International Airport

ICAO: MYNN Country: Bahamas
Latitude: 25.0389 Longitude: -77.4662
Latest Arrival : DAC0000 (MYGF-MYNN) Latest Departure : JBU422 (1) (MYNN-KJFK)


WX CaptureLIVE
Data provided by noaa.gov | Fetched at 22:28:29

METAR : MYNN 240300Z 09006KT 9999 FEW025 SCT200 26/22 A2996

TAF : MYNN 232215Z 2400/2424 09012KT 9999 SCT025 BKN220 FM241200 11012KT 9000 SHRA SCT020CB SCT050 BKN220


Runway Data for MYNN
Data provided by openaviationdata.com

Runway ID Mag Var Hdg Length Elevation Surface ILS Freq ILS Id ILS Slope
9 -6 95° 8318 ft 16 ft Asphalt -- -- --
14 -6 140° 11031 ft 16 ft Asphalt 110.1 IZQA 3
27 -6 275° 8318 ft 16 ft Asphalt -- -- --
32 -6 320° 11031 ft 16 ft Asphalt -- -- --

Nassau Lynden Pindling International Airport, Bahamas
Use only for reference purposes



Not for navigational purposes.